Regional Weather Roundup
Issued by NWS Jackson, KY

Home | Current Version | Previous Version | Graphics & Text | Print | Product List | Glossary On
Versions: 1 2 3 4 5 6 7 8 9 10 11 12 13 14 15 16 17 18 19 20 21 22 23 24 25 26 27 28 29 30 31 32 33 34 35 36 37 38 39 40 41 42 43 44 45 46 47 48 49 50
000
ASUS43 KJKL 210019
RWRJKL

EAST KENTUCKY HOURLY WEATHER ROUNDUP
NATIONAL WEATHER SERVICE JACKSON KY
800 PM EDT SAT SEP 20 2014

NOTE: "FAIR" INDICATES FEW OR NO CLOUDS BELOW 12,000 FEET WITH
NO SIGNIFICANT WEATHER AND/OR OBSTRUCTIONS TO VISIBILITY.

* THESE REPORTS ARE NOT UNDER NWS QUALITY CONTROL AND MAY NOT
  REPORT WEATHER SUCH AS PRECIPITATION AND FOG.

KYZ079-080-083-085-087-088-110-112-115-119-120-210100
...EASTERN KENTUCKY...

CITY           SKY/WX    TMP DP  RH WIND       PRES   REMARKS
JACKSON        CLEAR     72  63  73 S3        30.02F
6HR MIN TEMP:  72; 6HR MAX TEMP:  81;

LONDON         CLEAR     75  63  66 CALM      30.02F
6HR MIN TEMP:  74; 6HR MAX TEMP:  83;

SOMERSET*      CLEAR     73  61  64 CALM      30.02S
MONTICELLO*    CLEAR     71  65  81 CALM      30.02F
6HR MIN TEMP:  71; 6HR MAX TEMP:  86;

MIDDLESBORO*   CLEAR     70  64  81 CALM      30.03F
6HR MIN TEMP:  70; 6HR MAX TEMP:  83;

HARLAN APT*    CLEAR     68  63  83 MISG      30.04F
BLACK MTN*       N/A     61  57  88 SW5         N/A
PIKEVILLE APT* PTCLDY    73  63  68 CALM      30.02F
BIG SANDY*     CLEAR     74  65  72 CALM      30.01S
6HR MIN TEMP:  72; 6HR MAX TEMP:  81;

MOREHEAD APT*  CLEAR     72  64  78 S6        30.02R
ASHLAND*       CLEAR     70  63  78 CALM      29.97
$$

KYZ035-036-041-042-044-050-067-078-099-210100
...CENTRAL KENTUCKY...

CITY           SKY/WX    TMP DP  RH WIND       PRES   REMARKS
MT STERLING*   CLEAR     73  64  73 SW3       30.00S
FLEMING/MASON* CLEAR     72  64  78 SW3       30.00R
DANVILLE*      CLEAR     72  64  78 CALM      30.02R
RICHMOND*      CLEAR     75  63  64 S3        30.00R
LEXINGTON      CLEAR     74  63  68 SW7       29.99R
6HR MIN TEMP:  74; 6HR MAX TEMP:  83;

FRANKFORT      CLEAR     74  64  71 CALM      29.98R
6HR MIN TEMP:  74; 6HR MAX TEMP:  81;

$$

KYZ091>093-OHZ055-061-077-WVZ005-015-034-035-042-210100
...SOUTHERN OHIO/WEST VIRGINIA...

CITY           SKY/WX    TMP DP  RH WIND       PRES   REMARKS
COVINGTON      MOCLDY    75  64  68 SW5       29.97R
COLUMBUS       MOCLDY    79  60  52 SW9G17    29.93R
DAYTON         CLOUDY    76  64  66 SW9       29.95R
WILMINGTON     CLEAR     71  61  70 SW8       29.97R
HUNTINGTON     CLEAR     73  64  73 S3        29.98S
CHARLESTON     PTCLDY    71  67  87 CALM      29.99F
PINEVILLE*     CLEAR     66  65  97 MISG      30.08F
BECKLEY        CLEAR     67  57  70 SE7       30.07F
BLUEFIELD      CLEAR     66  55  67 S5        30.10F
$$

VAZ002-007-008-TNZ017-027-036-066-071-210100
...SOUTHWEST VIRGINIA/EAST TENNESSEE...

CITY           SKY/WX    TMP DP  RH WIND       PRES   REMARKS
WISE*          CLEAR     64  55  72 S5        30.10F
JONESVILLE*    CLEAR     72  63  73 CALM      30.05F
ABINGDON*      CLEAR     68  60  76 CALM      30.07S
BRISTOL        PTCLDY    69  56  62 N3        30.04F
KNOXVILLE      PTCLDY    78  55  44 CALM      30.01F
OAK RIDGE      CLEAR     75  64  68 CALM      30.03F
CROSSVILLE     CLEAR     69  63  81 CALM      30.07F
NASHVILLE      PTCLDY    80  64  58 CALM      30.00R
$$

...KEY TO REMARKS...
VSB - VISIBILITY IN MILES
WCI - WIND CHILL INDEX
HX  - HEAT INDEX

$$


USA.gov is the U.S. government's official web portal to all federal, state and local government web resources and services.